Regional Weather Roundup
Issued by NWS

Home | Current Version | Previous Version | Text Only | Print | Product List | Glossary On
Versions: 1 2 3 4 5 6 7 8 9 10 11 12 13 14 15 16 17 18 19 20 21 22 23 24 25 26 27 28 29 30 31 32 33 34 35 36 37 38 39 40 41 42 43 44 45 46 47 48 49 50
000
ASUS44 KFWD 240815
RWRTX
NORTH TEXAS HOURLY WEATHER ROUNDUP
NATIONAL WEATHER SERVICE FORT WORTH TX
200 AM CST FRI FEB 24 2017

NOTE: "FAIR" INDICATES FEW OR NO CLOUDS BELOW 12,000 FEET WITH NO
SIGNIFICANT WEATHER AND/OR OBSTRUCTIONS TO VISIBILITY.

TXZ118-119-240900-
DALLAS/FORT WORTH METROPLEX

CITY           SKY/WX    TMP DP  RH WIND       PRES   REMARKS
DFW AIRPORT    PTCLDY    68  59  73 SW13      29.58R
DALLAS LOVE    PTCLDY    68  59  73 SW8       29.60R
FTW MEACHAM    CLEAR     66  54  65 SW6       29.60R
DAL-EXECUTIVE  CLEAR     67  60  78 S7G16     29.60R
FTW-ALLIANCE   CLEAR     64  54  69 SW8       29.59R
FTW-NAS-JRB    CLEAR     67  53  61 W3        29.61R
FTW-SPINKS     CLEAR     64  56  74 S5        29.62R
ARLINGTON      CLEAR     66  58  75 S5        29.61R
GRAND PRAIRIE  CLEAR     65  58  76 S7        29.62R
ADDISON        CLEAR     67  59  76 S9        29.61R
MESQUITE       CLEAR     65  58  80 S13       29.61R
LANCASTER      CLEAR     64  58  81 SW8       29.62R
$$

TXZ091>094-102>105-117-120-121-131>134-240900-
NORTH CENTRAL TEXAS

CITY           SKY/WX    TMP DP  RH WIND       PRES   REMARKS
SHRMAN/DENISON CLEAR     65  58  76 S16G24    29.56R
GAINESVILLE    PTCLDY    63  50  62 W7        29.59R
BOWIE          PTCLDY    69  31  24 NW17G23   29.60R
BRIDGEPORT     PTCLDY    70  30  22 SW8       29.61R
DECATUR        PTCLDY    70  36  28 SW8       29.60R
DENTON         PTCLDY    65  56  72 SW12      29.58R
MCKINNEY       CLEAR     68  59  73 S12       29.57R
BONHAM         PTCLDY    66  55  68 S16G22    29.56S
GREENVILLE     CLEAR     64  54  68 S13       29.61R
ROCKWALL       CLEAR     66  58  75 SW16G25   29.60R
TERRELL        LGT RAIN  65  56  72 S13       29.61S
WAXAHACHIE     CLEAR     64  60  87 S5        29.62R
CLEBURNE       CLEAR     61  57  88 S6        29.63S
GRANBURY       CLEAR     63  49  60 CALM      29.62S
$$

TXZ083>090-098>101-113>116-127>130-139>142-154-155-240900-
WESTERN NORTH TEXAS

CITY           SKY/WX    TMP DP  RH WIND       PRES   REMARKS
WICHITA FALLS  CLEAR     49  38  65 N20G31    29.66R
WF-KICKAPOO    CLEAR     52  37  57 N20G32    29.68R
VERNON         PTCLDY    46  33  59 N26G39    29.69R WCI  37
ABILENE        CLEAR     60  30  32 S7        29.66R
ABILENE-DYESS  PTCLDY    63  28  26 W13       29.63R
GRAHAM         PTCLDY    64  30  27 SW3       29.59R
BRECKENRIDGE   PTCLDY    67  27  22 SW6       29.63R
CISCO          CLOUDY    63  27  25 W6        29.65R
RANGER         CLEAR     63  32  31 SW5       29.65S
MINERAL WELLS  MOCLDY    63  37  38 S6        29.60R
STEPHENVILLE   CLEAR     58  47  66 CALM      29.66S
COMANCHE       CLEAR     67  32  27 W10       29.65S
BROWNWOOD      MOCLDY    52  45  76 CALM      29.67R
COLEMAN        PTCLDY    64  29  26 CALM      29.67R
$$

TXZ143>147-156>162-174-175-240900-
CENTRAL TEXAS

CITY           SKY/WX    TMP DP  RH WIND       PRES   REMARKS
WACO           PTCLDY    63  61  93 S13       29.63F
WACO-MCGREGOR  PTCLDY    62  59  90 S10       29.63
HILLSBORO      CLEAR     64  61  91 S12       29.61F
CORSICANA      MOCLDY    63  60  90 S12       29.66R
MEXIA          MOCLDY    63  60  92 SW10      29.67R
HEARNE         MOCLDY    63  63  99 SE9       29.65S
CAMERON        MOCLDY    64  62  94 NW12      29.69R
TEMPLE         CLEAR     63  59  87 S7        29.67R
KILLEEN        CLEAR     66  56  69 S8        29.64F
KILLEEN-SKYLRK CLEAR     63  57  81 S8        29.66F
FORT HOOD      CLEAR     62  56  80 S8        29.62F
GATESVILLE     PTCLDY    66  55  68 S7        29.66S
HAMILTON       CLEAR     59  48  67 SW9       29.65R
$$

TXZ095>097-106>112-122>126-135>138-148>153-164>167-240900-
EAST TEXAS

CITY           SKY/WX    TMP DP  RH WIND       PRES   REMARKS
PARIS          CLEAR     64  54  68 SW10      29.59R
SULPHUR SPRNGS CLEAR     66  56  68 SW15      29.62R
MOUNT PLEASANT PTCLDY    64  53  66 S8        29.62R
GILMER         PTCLDY    62  55  76 S8        29.62R
MINEOLA        CLEAR     64  54  68 SW6       29.63R
TYLER          PTCLDY    63  55  75 S14       29.61R
LONGVIEW       PTCLDY    62  58  86 S13       29.60F
MARSHALL       PTCLDY    59  55  89 S9        29.64S
ATHENS         CLEAR     61  55  82 CALM      29.63R
PALESTINE      PTCLDY    61  58  91 S6        29.65R
JACKSONVILLE   PTCLDY    60  58  93 S9G16     29.64S
HENDERSON      CLEAR     59  56  89 S5        29.64S
CENTER         MOSUNNY   64  63  95 SE9       29.66S
NACOGDOCHES    PTCLDY    61  57  88 S7        29.64S
LUFKIN         PTCLDY    58  58 100 S6        29.65S
$$

SUPPLEMENTAL OBSERVATIONS (CENTRAL)

CITY           SKY/WX    TMP DP  RH WIND       PRES   REMARKS
DENISON DAM      N/A     70  57  64 SW20        N/A
CADDO GRASSLND   N/A     68  54  60 S16G23      N/A
PAT MAYSE LAKE   N/A     66  55  68 S17         N/A
GREENVILLE       N/A     66  54  63 SW13        N/A
CEDAR HILL       N/A     64  57  77 S6G14       N/A
ATHENS           N/A     63  55  77 SW5G16      N/A
LAKE LIMESTONE   N/A     63  57  82 W8          N/A
MCGREGOR         N/A     63  59  88 SW5         N/A
TEMPLE           N/A     64  61  88 SW3G13      N/A
$$

SUPPLEMENTAL OBSERVATIONS (WEST)

CITY           SKY/WX    TMP DP  RH WIND       PRES   REMARKS
MILLERS CREEK    N/A     54  32  43 N20G28      N/A
POSSUM KINGDOM   N/A     70  27  19 W6          N/A
LBJ GRASSLAND    N/A     66  36  32 SW3         N/A
GRANBURY         N/A     63  48  59 W3          N/A
COMANCHE         N/A     68  30  24 W10         N/A
HAMBY            N/A     57  32  38 SW5         N/A
IVIE RESERVOIR   N/A     63  34  34 W6          N/A
COLORADO BEND    N/A     64  48  55 W3          N/A
$$

SUPPLEMENTAL OBSERVATIONS (EAST)

CITY           SKY/WX    TMP DP  RH WIND       PRES   REMARKS
CLARKSVILLE      N/A     64  54  68 S8          N/A
TEXARKANA        N/A     63  54  72 S5          N/A
LINDEN           N/A     63  55  77 S3G13       N/A
CADDO LAKE       N/A    N/A N/A N/A SE3         N/A
GILMER           N/A     63  54  72 SW8G16      N/A
HENDERSON        N/A     61  57  88 S7          N/A
LUFKIN           N/A     61  57  88 MISG        N/A
N SABINE NF      N/A     61  59  94 MISG        N/A
S SABINE NF      N/A     61  57  88 SE3         N/A
$$

SUPPLEMENTAL OBSERVATIONS ARE A COLLECTION OF AUTOMATED INSTRUMENTS
THAT ARE MAINTAINED BY A VARIETY OF FEDERAL AND STATE AGENCIES.
CERTAIN ELEMENTS...SUCH AS HUMIDITY VALUES AND SUSTAINED WIND
SPEEDS...MAY BE APPROXIMATED.




USA.gov is the U.S. government's official web portal to all federal, state and local government web resources and services.